Погода в Усухчае

Россия / Республика Дагестан     41°25′28″N   47°55′20″E
темп.,
°C
ветер,
м/с
пор.,
м/с
влажн.,
%
обл.,
%
осадки,
мм/ч
давл.,
гПа
погр.,
м
23 апреля, пт
пт2300:00+7всв119697 0.0 1019143
03:00+7св229379 0.0 1018166
06:00+6всв229693 0.0 1020227
09:00+6всв339499 0.1 1022365
12:00+7всв449195 0.1 1022518
15:00+5всв329699 0.3 1024404
18:00+6сз019082 0.0 1024153
21:00+6юз11874 0.0 102527
24 апреля, сб
сб2400:00+5юз11830 0.0 102312
03:00+5зюз227775 0.0 102111
06:00+7зюз2263100 0.0 101934
09:00+12св315689 0.0 1017413
12:00+14св42619 0.0 1015544
15:00+13св4366100 0.0 1015535
18:00+9св228481 0.0 1019218
21:00+7зюз11889 0.0 102155
25 апреля, вс
вс2500:00+7с11854 0.0 102110
03:00+6зсз11825 0.0 102010
06:00+8з117860 0.0 102026
09:00+12всв326621 0.0 1019568
12:00+14всв426288 0.0 1018729
15:00+15всв42637 0.0 1016670
18:00+10всв227998 0.0 1016135
21:00+10юз2271100 0.0 101516
26 апреля, пн
пн2600:00+12зюз344826 0.0 101132
03:00+12зюз68475 0.0 101078
06:00+13зюз575118 0.0 101080
09:00+19св2245100 0.0 1008393
12:00+19всв335044 0.0 1008795
15:00+20всв345030 0.0 1006718
18:00+14вюв027275 0.0 100765
21:00+10всв128050 0.0 101063
27 апреля, вт
вт2700:00+8в118928 0.0 101170
03:00+7всв119434 0.0 1014109
06:00+7в228924 0.0 1014168
09:00+8всв3390100 0.1 1015505
12:00+7всв4396100 0.2 1016475
15:00+6св449797 2.9 1016449
18:00+6св3297100 0.2 1016263
21:00+5ссз0198100 0.2 1019174